Погода в Приозерске

Россия / Санкт-Петербург и Ленинградская область     61°02′11″N   30°07′11″E
темп.,
°C
ветер,
м/с
пор.,
м/с
влажн.,
%
обл.,
%
осадки,
мм/ч
давл.,
гПа
погр.,
м
23 октября, сб
сб2300:00+4зюз51194100 0.4 982896
03:00+3з379191 0.6 985616
06:00+3з3697100 0.3 988515
09:00+3ссв61197100 1.0 992650
12:00+2ссв61095100 0.7 997855
15:00+3ссв5986100 1.1 1001999
18:00+2с5109198 0.4 1005822
21:00+2с598182 0.6 1009809
24 октября, вс
вс2400:00+1ссз488494 0.0 1012611
03:000ссз389198 0.0 1014469
06:00−1ссз49855 0.1 1016464
09:00−1сз38855 0.1 1019373
12:00+2ссз36695 0.0 1021747
15:00+2сз3465100 0.0 1023987
18:000з2482100 0.0 102497
21:00−1юз2384100 0.0 102485
25 октября, пн
пн2500:00−1ю3782100 0.0 1023219
03:00+1ю41085100 0.1 1020521
06:00+1ю41397100 2.1 1017562
09:00+4ююз51495100 2.8 1014670
12:00+7юз51395100 2.4 1012775
15:00+8зюз61491100 4.3 1012880
18:00+8зюз51389100 0.1 1012685
21:00+8зюз51291100 0.1 1011666
26 октября, вт
вт2600:00+8зюз61287100 0.1 1011871
03:00+7юз51288100 0.2 1011790
06:00+7юз51189100 0.2 1010666
09:00+7юз51287100 0.4 1009705
12:00+8юз51288100 0.0 1009684
15:00+7юз51291100 0.1 1008669
18:00+7юз61393100 0.1 1006791
21:00+9зюз61383100 0.4 10051254
27 октября, ср
ср2700:00+8зюз51181100 0.1 1005956
03:00+7зюз51181100 0.1 1005629
06:00+6зюз4118865 0.0 1005567
09:00+6з498798 0.0 1006715
12:00+7з4878100 0.0 1007958
15:00+6зсз4877100 0.1 10081071
18:00+5зсз51083100 0.1 10091072
21:00+2сз510758 0.3 1011862